IPIPIL3 Weather Reports


time (UTC)temp
C
wind
direction
speed
KPH
gust
KPH
rain 1hr
cm
rain 24hr
cm
rain mn
cm
humidity
%
barometer
mb
20260506184502 27 274 1.6 4.8 0.00 0.00 0.00 92 1008.0
20260506183006 27 242 1.6 4.8 0.00 0.00 0.00 91 1008.0
20260506181506 27 276 1.6 6.4 0.00 0.00 0.00 91 1007.9
20260506180002 27 321 3.2 6.4 0.00 0.00 0.00 91 1008.1
20260506174504 27 318 1.6 4.8 0.00 0.00 0.00 91 1008.0
20260506173009 27 259 0.0 6.4 0.00 0.00 0.00 91 1008.2
20260506171513 27 257 1.6 6.4 0.00 0.00 0.00 91 1008.2
20260506170006 27 249 1.6 6.4 0.00 0.00 0.00 90 1008.2
20260506164504 27 309 1.6 3.2 0.00 0.00 0.00 90 1008.1
20260506163014 27 290 1.6 4.8 0.00 0.00 0.00 89 1008.4
20260506161503 27 65 1.6 8.0 0.00 0.00 0.00 89 1008.4
20260506160003 27 48 1.6 8.0 0.00 0.00 0.00 89 1008.3
20260506154503 27 118 1.6 6.4 0.00 0.00 0.00 89 1008.1
20260506153005 27 270 1.6 6.4 0.00 0.00 0.00 89 1008.2
20260506151507 27 262 1.6 9.7 0.00 0.00 0.00 89 1008.0
20260506150013 27 123 3.2 11.3 0.00 0.00 0.00 89 1007.9
20260506144503 27 284 1.6 6.4 0.00 0.00 0.00 89 1007.8
20260506143006 28 195 3.2 9.7 0.00 0.00 0.00 88 1007.6
20260506141503 28 51 3.2 8.0 0.00 0.00 0.00 88 1007.5
20260506140010 28 89 3.2 8.0 0.00 0.00 0.00 87 1007.2
20260506134503 28 41 3.2 8.0 0.00 0.00 0.00 87 1007.4
20260506133006 28 112 3.2 6.4 0.00 0.00 0.00 86 1006.7
20260506131507 28 198 1.6 11.3 0.00 0.00 0.00 85 1006.5
20260506130003 28 47 4.8 12.9 0.00 0.00 0.00 84 1006.2
20260506124503 28 157 4.8 12.9 0.00 0.00 0.00 83 1006.4
20260506123006 28 77 3.2 12.9 0.00 0.00 0.00 81 1006.2
20260506121503 29 83 4.8 12.9 0.00 0.00 0.00 80 1006.1
20260506120003 30 74 4.8 9.7 0.00 0.00 0.00 78 1005.9
20260506114503 30 262 3.2 14.5 0.00 0.00 0.00 77 1005.8
20260506113006 30 209 3.2 14.5 0.00 0.00 0.00 76 1005.8
20260506111503 31 11 4.8 16.1 0.00 0.00 0.00 74 1005.6
20260506110003 31 115 6.4 14.5 0.00 0.00 0.00 71 1005.6
20260506104511 32 59 4.8 20.9 0.00 0.00 0.00 69 1005.6
20260506103009 32 247 3.2 9.7 0.00 0.00 0.00 68 1005.6
20260506101506 32 46 6.4 17.7 0.00 0.00 0.00 69 1005.7
20260506100003 33 115 6.4 19.3 0.00 0.00 0.00 66 1005.7
20260506094503 34 156 4.8 12.9 0.00 0.00 0.00 62 1005.7
20260506093005 35 257 1.6 6.4 0.00 0.00 0.00 57 1005.8
20260506091503 34 255 1.6 6.4 0.00 0.00 0.00 57 1006.1
20260506090003 34 265 1.6 8.0 0.00 0.00 0.00 56 1006.0
20260506084503 34 252 3.2 8.0 0.00 0.00 0.00 59 1006.2
20260506083009 34 125 1.6 11.3 0.00 0.00 0.00 56 1006.4
20260506081506 33 279 1.6 4.8 0.00 0.00 0.00 58 1006.6
20260506073005 33 93 1.6 6.4 0.00 0.00 0.00 60 1007.2
20260506071502 33 253 1.6 6.4 0.00 0.00 0.00 60 1007.5
20260506061503 -17 526.3 410.4 0.00 0.00 0.00 1008.2
20260506044504 -17 526.3 410.4 0.00 0.00 0.00 1009.2
20260506043008 -17 526.3 410.4 0.00 0.00 0.00 1009.3
20260506041501 -17 526.3 410.4 0.00 0.00 0.00 1009.5
20260506040002 -17 526.3 410.4 0.00 0.00 0.00 1009.3
20260506034502 -17 526.3 410.4 0.00 0.00 0.00 1009.6
20260506033005 -17 526.3 410.4 0.00 0.00 0.00 1009.7
20260506031502 -17 526.3 410.4 0.00 0.00 0.00 1009.5
20260506030003 -17 526.3 410.4 0.00 0.00 0.00 1009.5
20260506024507 -17 526.3 410.4 0.00 0.00 0.00 1009.4
20260506023004 -17 526.3 410.4 0.00 0.00 0.00 1009.4
20260506021504 -17 526.3 410.4 0.00 0.00 0.00 1009.4
20260506014559 -17 526.3 410.4 0.00 0.00 0.00 1008.8
20260506013001 -17 526.3 410.4 0.00 0.00 0.00 1008.4
20260506011600 -17 526.3 410.4 0.00 0.00 0.00 1008.2
20260506004603 -17 526.3 410.4 0.00 0.00 0.00 1007.7
20260506001620 -17 526.3 410.4 0.00 0.00 0.00 1007.7
20260505234613 -17 526.3 410.4 0.00 0.00 0.00 1007.9
20260505233001 -17 526.3 410.4 0.00 0.00 0.00 1007.8
20260505231559 -17 526.3 410.4 0.00 0.00 0.00 1007.9
20260505224558 -17 70 0.0 4.8 0.00 0.00 0.00 94 1008.3
20260505223001 24 70 0.0 1.6 0.00 0.00 0.00 93 1008.4
20260505221602 24 70 0.0 3.2 0.00 0.00 0.00 93 1008.3
20260505214604 24 271 0.0 3.2 0.00 0.00 0.00 92 1008.3
20260505213001 24 240 1.6 3.2 0.00 0.00 0.00 93 1008.4
20260505211634 24 244 0.0 4.8 0.00 0.00 0.00 93 1008.6
20260505210059 24 304 0.0 1.6 0.00 0.00 0.00 93 1008.8
20260505204559 24 263 0.0 3.2 0.00 0.00 0.00 93 1008.8
20260505201559 24 295 0.0 8.0 0.00 0.00 0.00 92 1009.1
20260505194558 23 238 1.6 11.3 0.00 0.00 0.00 93 1009.6
20260505193000 23 265 3.2 9.7 0.00 0.00 0.00 93 1009.2
20260505191559 23 309 4.8 11.3 0.00 0.00 0.00 92 1009.0